QPF
0.04 0.05 0.06 0.06 0.08 0.08 0.08 0.09 0.10 0.11 0.11 0.11 0.13 0.14 0.14 0.14 0.16 0.13 0.11 0.12 0.10 0.08 0.06 0.05 0.05 0.04 0.03 0.03 0.04 0.05 0.05 0.06 0.06 0.06 0.05 0.05 0.04 0.04
0.04 0.04 0.04 0.05 0.06 0.09 0.10 0.10 0.10 0.09 0.10 0.11 0.11 0.11 0.12 0.14 0.16 0.13 0.11 0.10 0.08 0.07 0.05 0.04 0.04 0.04 0.03 0.03 0.02 0.02 0.02 0.02 0.03 0.03 0.03 0.03 0.03 0.02
0.08 0.06 0.05 0.05 0.05 0.07 0.09 0.09 0.10 0.08 0.08 0.10 0.10 0.11 0.11 0.11 0.11 0.09 0.10 0.08 0.06 0.05 0.04 0.03 0.02 0.02 0.01 0.01 0.01 0.01 0.01 0.01 0.01 0.01 0.01 0.01 0.01 0.01
0.11 0.09 0.07 0.07 0.07 0.08 0.08 0.08 0.09 0.09 0.09 0.13 0.13 0.13 0.12 0.11 0.09 0.08 0.07 0.06 0.05 0.04 0.03 0.02 0.02 0.01 0.01 0.01 0.01 0.00 0.00 0.00 0.00 0.00 0.00 0.00 0.00 0.00
0.09 0.10 0.09 0.07 0.06 0.07 0.08 0.07 0.07 0.08 0.09 0.10 0.12 0.13 0.12 0.10 0.09 0.08 0.07 0.06 0.04 0.05 0.04 0.03 0.02 0.02 0.01 0.01 0.00 0.00 0.00 0.00 0.00 0.00 0.00 0.00 0.00 0.00
0.04 0.04 0.06 0.06 0.05 0.07 0.08 0.06 0.05 0.06 0.08 0.07 0.07 0.08 0.08 0.08 0.07 0.06 0.05 0.05 0.04 0.04 0.03 0.03 0.02 0.01 0.01 0.01 0.00 0.00 0.00 0.00 0.00 0.00 0.00 0.00 0.00 0.00
0.02 0.02 0.03 0.05 0.06 0.07 0.09 0.07 0.05 0.05 0.06 0.06 0.05 0.05 0.05 0.06 0.06 0.06 0.04 0.04 0.03 0.02 0.02 0.02 0.01 0.01 0.01 0.01 0.00 0.00 0.00 0.00 0.00 0.00 0.00 0.00 0.00 0.00
0.02 0.02 0.02 0.03 0.04 0.05 0.07 0.07 0.06 0.05 0.04 0.04 0.04 0.04 0.03 0.03 0.04 0.04 0.04 0.04 0.04 0.02 0.01 0.01 0.01 0.01 0.01 0.01 0.01 0.01 0.01 0.00 0.00 0.00 0.00 0.00 0.00 0.00
0.02 0.02 0.02 0.03 0.03 0.03 0.04 0.05 0.05 0.04 0.03 0.02 0.02 0.02 0.02 0.02 0.03 0.03 0.02 0.02 0.02 0.03 0.03 0.02 0.01 0.01 0.00 0.00 0.00 0.00 0.00 0.00 0.00 0.00 0.00 0.00 0.00 0.00
0.02 0.02 0.02 0.02 0.03 0.03 0.02 0.02 0.02 0.02 0.02 0.01 0.01 0.01 0.01 0.01 0.02 0.04 0.03 0.02 0.02 0.02 0.02 0.01 0.02 0.01 0.00 0.01 0.01 0.00 0.00 0.00 0.00 0.00 0.00 0.00 0.00 0.00
0.02 0.02 0.02 0.02 0.02 0.02 0.01 0.01 0.01 0.01 0.01 0.01 0.01 0.00 0.00 0.01 0.01 0.02 0.04 0.05 0.04 0.02 0.02 0.01 0.01 0.01 0.00 0.00 0.00 0.00 0.00 0.00 0.00 0.00 0.00 0.00 0.00 0.00
0.01 0.01 0.01 0.01 0.01 0.01 0.01 0.01 0.01 0.01 0.00 0.00 0.00 0.00 0.00 0.01 0.01 0.01 0.02 0.04 0.05 0.03 0.02 0.01 0.01 0.01 0.00 0.00 0.00 0.00 0.00 0.00 0.00 0.00 0.00 0.00 0.00 0.00
0.00 0.00 0.00 0.00 0.00 0.00 0.00 0.00 0.00 0.00 0.00 0.00 0.00 0.00 0.01 0.01 0.01 0.01 0.01 0.02 0.03 0.03 0.02 0.02 0.02 0.01 0.01 0.00 0.00 0.00 0.00 0.00 0.00 0.00 0.00 0.00 0.00 0.00
0.00 0.00 0.00 0.00 0.00 0.00 0.00 0.00 0.00 0.00 0.00 0.00 0.00 0.00 0.01 0.02 0.02 0.01 0.01 0.01 0.01 0.02 0.01 0.01 0.01 0.01 0.01 0.00 0.00 0.00 0.00 0.00 0.00 0.00 0.00 0.00 0.00 0.00
0.00 0.00 0.00 0.00 0.00 0.00 0.00 0.01 0.01 0.01 0.00 0.00 0.00 0.00 0.01 0.02 0.02 0.01 0.01 0.01 0.01 0.01 0.01 0.01 0.01 0.01 0.01 0.00 0.00 0.00 0.00 0.00 0.00 0.01 0.00 0.00 0.00 0.00
0.00 0.00 0.00 0.00 0.00 0.00 0.00 0.01 0.01 0.01 0.01 0.00 0.00 0.00 0.01 0.03 0.02 0.01 0.01 0.01 0.01 0.01 0.01 0.00 0.00 0.00 0.00 0.00 0.00 0.00 0.00 0.00 0.00 0.01 0.01 0.00 0.00 0.00
0.00 0.00 0.00 0.00 0.00 0.00 0.00 0.01 0.01 0.01 0.01 0.01 0.01 0.01 0.02 0.02 0.02 0.01 0.01 0.00 0.00 0.00 0.00 0.00 0.00 0.00 0.00 0.00 0.00 0.00 0.00 0.00 0.00 0.00 0.00 0.00 0.00 0.00
0.00 0.00 0.00 0.00 0.00 0.00 0.00 0.01 0.01 0.01 0.01 0.01 0.01 0.01 0.01 0.00 0.00 0.00 0.00 0.00 0.00 0.00 0.00 0.00 0.00 0.00 0.00 0.00 0.00 0.00 0.00 0.00 0.00 0.00 0.00 0.00 0.00 0.00
0.00 0.00 0.00 0.00 0.00 0.00 0.00 0.00 0.00 0.01 0.01 0.00 0.00 0.00 0.00 0.00 0.00 0.00 0.00 0.00 0.00 0.00 0.00 0.00 0.00 0.00 0.00 0.00 0.00 0.00 0.00 0.00 0.00 0.00 0.00 0.00 0.00 0.00
0.00 0.00 0.00 0.00 0.00 0.00 0.00 0.00 0.00 0.00 0.00 0.00 0.00 0.00 0.00 0.00 0.00 0.00 0.00 0.00 0.00 0.00 0.00 0.00 0.00 0.00 0.00 0.00 0.00 0.00 0.00 0.00 0.00 0.00 0.00 0.00 0.00 0.00
0.00 0.00 0.00 0.00 0.00 0.00 0.00 0.00 0.00 0.00 0.00 0.00 0.00 0.00 0.00 0.00 0.00 0.00 0.00 0.00 0.00 0.00 0.00 0.00 0.00 0.00 0.00 0.00 0.00 0.00 0.00 0.00 0.00 0.00 0.00 0.00 0.00 0.00
0.00 0.00 0.00 0.00 0.00 0.00 0.00 0.00 0.00 0.00 0.00 0.00 0.00 0.00 0.00 0.00 0.00 0.00 0.00 0.00 0.00 0.00 0.00 0.00 0.00 0.00 0.00 0.00 0.00 0.00 0.00 0.00 0.00 0.00 0.00 0.00 0.01 0.01
0.00 0.00 0.00 0.00 0.00 0.00 0.00 0.00 0.00 0.00 0.00 0.00 0.00 0.00 0.00 0.00 0.00 0.00 0.00 0.00 0.00 0.00 0.00 0.00 0.00 0.00 0.00 0.00 0.00 0.00 0.00 0.00 0.00 0.00 0.00 0.00 0.00 0.01
MSLP
1015.77 1015.93 1016.18 1016.51 1016.90 1017.32 1017.73 1018.14 1018.52 1018.89 1019.27 1019.66 1020.07 1020.52 1020.99 1021.47 1021.94 1022.37 1022.76 1023.10 1023.39 1023.64 1023.86 1024.08 1024.30 1024.54 1024.80 1025.09 1025.38 1025.68 1025.98 1026.25 1026.49 1026.69 1026.85 1026.96 1027.03 1027.05
1015.71 1015.79 1015.96 1016.22 1016.55 1016.93 1017.35 1017.78 1018.24 1018.72 1019.24 1019.78 1020.36 1020.95 1021.53 1022.08 1022.59 1023.02 1023.38 1023.66 1023.86 1024.03 1024.18 1024.32 1024.50 1024.70 1024.94 1025.22 1025.51 1025.80 1026.08 1026.32 1026.53 1026.69 1026.80 1026.86 1026.87 1026.86
1015.79 1015.81 1015.92 1016.11 1016.38 1016.71 1017.11 1017.56 1018.07 1018.63 1019.25 1019.91 1020.61 1021.31 1021.98 1022.59 1023.13 1023.56 1023.88 1024.11 1024.27 1024.37 1024.46 1024.56 1024.69 1024.86 1025.08 1025.34 1025.61 1025.88 1026.12 1026.33 1026.50 1026.61 1026.67 1026.68 1026.66 1026.61
1016.07 1016.06 1016.11 1016.25 1016.46 1016.75 1017.11 1017.55 1018.07 1018.68 1019.35 1020.09 1020.85 1021.61 1022.33 1022.98 1023.52 1023.94 1024.24 1024.43 1024.55 1024.61 1024.66 1024.73 1024.83 1024.98 1025.18 1025.41 1025.65 1025.88 1026.08 1026.25 1026.37 1026.43 1026.45 1026.43 1026.38 1026.32
1016.58 1016.54 1016.57 1016.66 1016.82 1017.06 1017.38 1017.80 1018.30 1018.90 1019.58 1020.32 1021.09 1021.86 1022.58 1023.21 1023.73 1024.13 1024.41 1024.57 1024.66 1024.71 1024.75 1024.80 1024.89 1025.02 1025.19 1025.38 1025.58 1025.76 1025.91 1026.03 1026.10 1026.12 1026.12 1026.08 1026.03 1025.98
1017.29 1017.25 1017.26 1017.32 1017.45 1017.64 1017.91 1018.27 1018.73 1019.28 1019.91 1020.60 1021.32 1022.04 1022.70 1023.29 1023.76 1024.12 1024.37 1024.52 1024.60 1024.65 1024.68 1024.74 1024.82 1024.94 1025.08 1025.23 1025.37 1025.50 1025.59 1025.65 1025.67 1025.67 1025.65 1025.62 1025.60 1025.57
1018.14 1018.11 1018.12 1018.16 1018.25 1018.40 1018.62 1018.91 1019.29 1019.76 1020.30 1020.90 1021.53 1022.15 1022.72 1023.22 1023.63 1023.94 1024.16 1024.29 1024.37 1024.43 1024.48 1024.54 1024.63 1024.73 1024.84 1024.94 1025.03 1025.09 1025.12 1025.12 1025.11 1025.08 1025.07 1025.06 1025.07 1025.10
1019.06 1019.03 1019.04 1019.07 1019.14 1019.24 1019.40 1019.62 1019.92 1020.28 1020.72 1021.20 1021.70 1022.19 1022.66 1023.06 1023.39 1023.64 1023.82 1023.94 1024.03 1024.10 1024.17 1024.25 1024.33 1024.42 1024.49 1024.55 1024.58 1024.57 1024.54 1024.49 1024.44 1024.40 1024.40 1024.42 1024.48 1024.57
1019.94 1019.93 1019.94 1019.96 1019.99 1020.06 1020.16 1020.32 1020.52 1020.79 1021.11 1021.46 1021.84 1022.21 1022.55 1022.85 1023.10 1023.29 1023.44 1023.55 1023.64 1023.73 1023.82 1023.91 1024.00 1024.07 1024.12 1024.12 1024.09 1024.02 1023.93 1023.83 1023.74 1023.70 1023.70 1023.75 1023.86 1024.00
1020.74 1020.73 1020.73 1020.73 1020.75 1020.78 1020.84 1020.93 1021.07 1021.25 1021.47 1021.71 1021.97 1022.23 1022.46 1022.67 1022.84 1022.99 1023.10 1023.20 1023.30 1023.41 1023.51 1023.61 1023.70 1023.75 1023.77 1023.73 1023.64 1023.52 1023.37 1023.23 1023.11 1023.05 1023.05 1023.12 1023.25 1023.43
1021.43 1021.41 1021.39 1021.38 1021.37 1021.38 1021.40 1021.46 1021.54 1021.65 1021.80 1021.96 1022.13 1022.30 1022.45 1022.59 1022.70 1022.80 1022.89 1022.98 1023.08 1023.19 1023.30 1023.40 1023.48 1023.52 1023.51 1023.43 1023.31 1023.13 1022.94 1022.76 1022.61 1022.52 1022.51 1022.58 1022.71 1022.89
1022.01 1021.98 1021.94 1021.91 1021.89 1021.87 1021.88 1021.90 1021.96 1022.03 1022.13 1022.24 1022.35 1022.46 1022.56 1022.64 1022.71 1022.77 1022.84 1022.91 1023.00 1023.10 1023.21 1023.31 1023.37 1023.40 1023.36 1023.27 1023.11 1022.90 1022.68 1022.46 1022.28 1022.16 1022.11 1022.15 1022.25 1022.39
1022.52 1022.47 1022.41 1022.37 1022.33 1022.30 1022.30 1022.31 1022.35 1022.41 1022.48 1022.57 1022.65 1022.72 1022.78 1022.82 1022.86 1022.89 1022.93 1022.98 1023.05 1023.13 1023.22 1023.30 1023.36 1023.37 1023.32 1023.20 1023.02 1022.80 1022.55 1022.31 1022.10 1021.94 1021.84 1021.82 1021.86 1021.95
1023.00 1022.92 1022.85 1022.79 1022.74 1022.71 1022.70 1022.71 1022.75 1022.80 1022.87 1022.93 1023.00 1023.05 1023.08 1023.10 1023.10 1023.10 1023.11 1023.13 1023.17 1023.23 1023.29 1023.35 1023.38 1023.37 1023.31 1023.19 1023.00 1022.77 1022.51 1022.25 1022.00 1021.80 1021.65 1021.55 1021.51 1021.51
1023.45 1023.35 1023.27 1023.20 1023.15 1023.11 1023.10 1023.11 1023.15 1023.20 1023.26 1023.32 1023.37 1023.40 1023.42 1023.41 1023.38 1023.35 1023.32 1023.30 1023.30 1023.32 1023.34 1023.37 1023.37 1023.35 1023.28 1023.15 1022.97 1022.74 1022.47 1022.19 1021.91 1021.66 1021.45 1021.28 1021.15 1021.05
1023.87 1023.77 1023.68 1023.60 1023.54 1023.51 1023.49 1023.50 1023.53 1023.57 1023.62 1023.67 1023.71 1023.72 1023.72 1023.68 1023.63 1023.56 1023.49 1023.42 1023.38 1023.35 1023.33 1023.31 1023.29 1023.24 1023.16 1023.02 1022.84 1022.61 1022.34 1022.05 1021.74 1021.45 1021.17 1020.92 1020.70 1020.51
1024.23 1024.13 1024.04 1023.96 1023.90 1023.86 1023.83 1023.83 1023.85 1023.88 1023.91 1023.94 1023.96 1023.96 1023.93 1023.87 1023.78 1023.68 1023.57 1023.47 1023.37 1023.29 1023.22 1023.16 1023.10 1023.03 1022.92 1022.78 1022.59 1022.36 1022.08 1021.77 1021.44 1021.10 1020.76 1020.44 1020.14 1019.87
1024.50 1024.41 1024.32 1024.25 1024.18 1024.12 1024.08 1024.06 1024.06 1024.07 1024.08 1024.09 1024.09 1024.07 1024.02 1023.94 1023.84 1023.71 1023.57 1023.42 1023.28 1023.16 1023.04 1022.94 1022.83 1022.72 1022.59 1022.42 1022.21 1021.97 1021.67 1021.34 1020.98 1020.60 1020.21 1019.83 1019.46 1019.13
1024.67 1024.58 1024.50 1024.42 1024.34 1024.27 1024.21 1024.17 1024.14 1024.12 1024.12 1024.11 1024.10 1024.07 1024.01 1023.92 1023.80 1023.66 1023.50 1023.33 1023.16 1022.99 1022.83 1022.67 1022.52 1022.37 1022.19 1021.99 1021.76 1021.48 1021.16 1020.79 1020.40 1019.98 1019.55 1019.12 1018.70 1018.32
1024.72 1024.64 1024.56 1024.46 1024.37 1024.28 1024.19 1024.13 1024.08 1024.04 1024.02 1024.01 1023.99 1023.96 1023.90 1023.82 1023.71 1023.57 1023.40 1023.21 1023.02 1022.82 1022.62 1022.42 1022.22 1022.01 1021.79 1021.54 1021.26 1020.94 1020.58 1020.18 1019.75 1019.30 1018.83 1018.36 1017.91 1017.50
1024.68 1024.59 1024.49 1024.38 1024.26 1024.15 1024.04 1023.96 1023.89 1023.85 1023.82 1023.81 1023.80 1023.78 1023.74 1023.68 1023.58 1023.45 1023.29 1023.10 1022.89 1022.66 1022.43 1022.19 1021.94 1021.67 1021.40 1021.09 1020.76 1020.39 1019.99 1019.55 1019.09 1018.60 1018.11 1017.61 1017.14 1016.71
1024.55 1024.45 1024.33 1024.19 1024.04 1023.90 1023.78 1023.68 1023.61 1023.56 1023.54 1023.54 1023.55 1023.55 1023.54 1023.49 1023.42 1023.30 1023.15 1022.96 1022.74 1022.50 1022.23 1021.95 1021.65 1021.33 1021.00 1020.64 1020.25 1019.84 1019.39 1018.92 1018.42 1017.92 1017.40 1016.90 1016.41 1015.97
1024.35 1024.22 1024.07 1023.90 1023.73 1023.57 1023.43 1023.32 1023.25 1023.21 1023.21 1023.23 1023.25 1023.28 1023.29 1023.27 1023.21 1023.10 1022.95 1022.76 1022.53 1022.26 1021.96 1021.64 1021.30 1020.93 1020.55 1020.14 1019.70 1019.24 1018.76 1018.26 1017.75 1017.23 1016.71 1016.20 1015.72 1015.28
Thickness
5632 5634 5636 5637 5638 5639 5638 5636 5633 5627 5622 5620 5620 5620 5620 5620 5619 5618 5616 5614 5613 5610 5608 5606 5602 5599 5596 5594 5590 5587 5584 5582 5579 5575 5572 5568 5565 5562
5622 5625 5626 5628 5629 5630 5630 5629 5628 5625 5617 5613 5611 5611 5610 5609 5608 5606 5604 5603 5601 5599 5597 5594 5591 5588 5585 5582 5579 5575 5573 5570 5567 5564 5561 5557 5554 5551
5611 5614 5615 5617 5619 5619 5619 5619 5617 5616 5611 5604 5602 5601 5600 5598 5596 5595 5593 5591 5590 5588 5586 5583 5581 5578 5575 5572 5568 5565 5562 5560 5557 5554 5550 5547 5544 5541
5599 5601 5604 5606 5608 5608 5609 5608 5606 5606 5604 5598 5592 5590 5589 5587 5585 5584 5582 5581 5579 5577 5576 5574 5571 5568 5565 5562 5559 5556 5553 5550 5548 5545 5541 5538 5536 5533
5587 5590 5592 5595 5597 5597 5598 5597 5596 5595 5593 5590 5584 5581 5578 5577 5574 5573 5572 5570 5569 5567 5566 5564 5561 5559 5556 5553 5550 5547 5544 5542 5539 5536 5533 5530 5527 5525
5576 5579 5581 5584 5586 5587 5587 5586 5586 5584 5581 5579 5575 5570 5568 5566 5564 5562 5560 5560 5559 5559 5557 5555 5553 5550 5547 5545 5542 5539 5537 5534 5531 5529 5526 5523 5521 5518
5565 5568 5571 5573 5575 5577 5577 5575 5575 5573 5570 5568 5564 5561 5558 5557 5556 5554 5552 5551 5550 5550 5548 5546 5544 5542 5540 5538 5536 5533 5531 5528 5526 5523 5521 5518 5515 5513
5554 5557 5560 5561 5563 5565 5566 5566 5566 5565 5561 5559 5555 5553 5551 5550 5549 5548 5545 5543 5541 5541 5539 5537 5536 5534 5533 5532 5530 5528 5526 5523 5521 5519 5516 5514 5511 5508
5544 5546 5549 5550 5552 5554 5554 5554 5554 5554 5554 5552 5549 5546 5545 5544 5543 5541 5539 5537 5535 5534 5531 5529 5529 5527 5528 5527 5526 5524 5522 5519 5517 5515 5512 5510 5507 5505
5535 5537 5538 5539 5542 5544 5544 5544 5544 5544 5544 5543 5542 5540 5540 5539 5538 5536 5534 5531 5529 5528 5526 5523 5522 5522 5524 5523 5522 5520 5518 5516 5514 5512 5509 5507 5505 5502
5527 5528 5530 5531 5532 5535 5536 5535 5534 5534 5535 5535 5534 5534 5533 5533 5532 5530 5527 5524 5520 5520 5520 5519 5517 5516 5517 5518 5519 5517 5516 5514 5512 5510 5507 5505 5503 5500
5519 5521 5523 5524 5525 5527 5527 5527 5525 5525 5526 5527 5527 5527 5527 5527 5526 5525 5522 5518 5515 5514 5516 5514 5512 5511 5511 5513 5514 5514 5513 5511 5510 5508 5506 5504 5502 5498
5514 5515 5517 5519 5521 5522 5522 5521 5521 5521 5521 5521 5520 5521 5521 5521 5521 5521 5519 5517 5513 5512 5514 5512 5509 5507 5506 5506 5509 5511 5510 5509 5508 5507 5506 5504 5502 5498
5511 5512 5515 5517 5518 5519 5519 5519 5519 5518 5517 5517 5516 5516 5516 5517 5518 5518 5517 5516 5515 5514 5514 5512 5508 5506 5503 5502 5503 5506 5508 5508 5507 5506 5506 5505 5503 5501
5511 5513 5515 5516 5517 5517 5518 5518 5517 5516 5514 5513 5513 5513 5514 5516 5516 5516 5516 5515 5514 5514 5513 5512 5510 5507 5504 5502 5501 5502 5503 5505 5507 5506 5505 5504 5503 5501
5512 5513 5515 5516 5517 5517 5517 5517 5516 5515 5514 5513 5512 5513 5514 5515 5514 5514 5513 5512 5510 5511 5513 5512 5511 5508 5505 5504 5502 5502 5502 5502 5505 5505 5504 5504 5503 5502
5512 5513 5514 5514 5515 5515 5516 5516 5517 5516 5515 5514 5513 5513 5514 5514 5513 5513 5511 5509 5508 5507 5508 5511 5511 5510 5509 5506 5503 5503 5503 5503 5504 5505 5503 5501 5503 5503
5514 5513 5513 5514 5515 5516 5516 5517 5517 5517 5517 5516 5515 5514 5514 5514 5513 5513 5511 5509 5508 5508 5508 5509 5509 5508 5507 5508 5507 5504 5504 5503 5504 5504 5501 5498 5500 5503
5517 5516 5516 5517 5518 5519 5519 5520 5520 5520 5520 5519 5518 5517 5516 5515 5514 5513 5512 5511 5509 5509 5509 5509 5507 5505 5502 5502 5508 5509 5505 5504 5503 5502 5500 5499 5498 5502
5521 5521 5522 5523 5523 5524 5524 5523 5523 5523 5523 5522 5521 5520 5518 5517 5516 5514 5513 5512 5510 5509 5509 5510 5509 5507 5504 5503 5505 5508 5509 5505 5502 5501 5501 5500 5500 5502
5527 5527 5528 5529 5529 5529 5528 5528 5527 5527 5526 5525 5523 5522 5521 5519 5518 5516 5515 5515 5513 5511 5510 5510 5513 5512 5509 5506 5504 5506 5510 5510 5506 5502 5500 5498 5497 5497
5533 5534 5535 5535 5535 5534 5534 5533 5532 5531 5530 5528 5527 5526 5524 5523 5521 5519 5518 5516 5515 5513 5513 5513 5514 5512 5509 5506 5505 5505 5507 5509 5509 5506 5502 5499 5494 5493
5541 5541 5542 5542 5541 5540 5539 5538 5537 5535 5534 5532 5531 5529 5528 5526 5524 5523 5521 5519 5517 5515 5514 5513 5513 5511 5509 5507 5505 5504 5504 5504 5504 5503 5504 5503 5500 5498